560  
ASUS42 KTBW 270418  
RWRFL  
FLORIDA REGIONAL WEATHER ROUNDUP  
NATIONAL WEATHER SERVICE TAMPA BAY RUSKIN FL  
1200 AM EDT THU JUL 27 2017  
 
NOTE: "FAIR" INDICATES FEW OR NO CLOUDS BELOW 12,000 FEET WITH NO  
SIGNIFICANT WEATHER AND/OR S TO VISIBILITY
.  
 
FLZ001>010-012>015-112-114-115-270500-  
PANHANDLE FLORIDA  
 
CITY SKY/WX TMP DP RH WIND PRES REMARKS
 
PENSACOLA CLOUDY 79 70 74 NW7 30.05F  
PENSACOLA NAS MOCLDY 76 72 87 CALM 30.05S  
MILTON NAS CLOUDY 72 72 100 CALM 30.06  
CRESTVIEW MOCLDY 75 73 93 CALM 30.07S  
DUKE FIELD CLOUDY 75 72 88 NW3 30.06F  
VALPARAISO MOCLDY 77 73 87 N6 30.04S  
MARY ESTHER CLEAR 75 74 96 N9 30.03S  
PANAMA CITY FAIR 79 71 76 N6 30.03R  
TYNDALL AFB MOCLDY 81 74 80 CALM 30.03R  
APALACHICOLA PTCLDY 80 78 94 CALM 30.02F  
 
STATION/POSITION SKY/WX TEMP WIND PRES WAVE SWELL
 
AIR SEA DIR/SP/G HT/PER HT/PER  
(F) (DEG/KT/KT) (MB) (FT/S) (FT/S)  
30.1N 87.6W 82 85 360/ 10/ 14 1017.7R 1  
29.2N 88.2W 85 86 300/ 6/ 10 1018.0  
28.8N 86.0W 84 86 340/ 4/ 6 1017.2S 1/ 4  
PANAMA CITY BEAC 80 10/ 6/ 7 1017.5R  
TOWER C 84 1017.1F  
28.5N 84.5W 83 86 280/ 4/ 4 1017.3R 1/ 5 2/ 5  
 

 
FLZ011-016>038-118-127-128-134-139-239-270500-  
NORTH FLORIDA  
 
CITY SKY/WX TMP DP RH WIND PRES REMARKS
 
MARIANNA MOCLDY 77 75 93 N3 30.04R  
TALLAHASSEE PTCLDY 79 75 87 CALM 30.04S  
PERRY CLOUDY 76 74 95 CALM 30.05F  
LIVE OAK MOCLDY 75 75 100 N5 30.05F  
CROSS CITY LGT RAIN 77 76 96 N6 30.07F  
LAKE CITY FAIR 72 72 100 CALM 30.04F  
GAINESVILLE MOCLDY 78 74 87 NW5 30.05F  
WILLISTON CLEAR 79 77 94 CALM 30.02F  
PALATKA FAIR 81 81 100 CALM 30.02F  
MAYPORT NAS CLOUDY 78 75 90 NE5 30.03F  
JACKSONVILLE CLOUDY 76 76 100 CALM 30.03F  
JAX NAS CLOUDY 79 75 87 N6 30.04F  
JAX CECIL CLOUDY 75 75 100 NW3 30.04S  
FERNANDINA BEA CLOUDY 79 77 94 CALM 30.02F THUNDER  
ST AUGUSTINE MOCLDY 79 77 94 CALM 30.03F  
PALM COAST FAIR 79 78 95 S6 30.02F  
 
STATION/POSITION SKY/WX TEMP WIND PRES WAVE SWELL
 
AIR SEA DIR/SP/G HT/PER HT/PER  
(F) (DEG/KT/KT) (MB) (FT/S) (FT/S)  
SHELL POINT NOT AVBL  
KEATON BEACH 75 20/ 2/ 3 1016.5F  
CEDAR KEY 84 250/ 5/ 9 1016.7F  
FERNANDINA 77 78 360/ 6/ 7 1017.8F  
30.7N 81.3W 80 N/A 2/10  
MAYPORT 77 78 CALM / 1 1017.2F  
31.4N 80.9W 76 80 90/ 8/ 10 1017.5F 2/ 3 2/ 9  
ST AUGUSTINE 78 75 170/ 5/ 5 1016.7F  
 

 
FLZ040-043>046-052-053-057-058-063-144-270500-  
INTERIOR CENTRAL FLORIDA  
 
CITY SKY/WX TMP DP RH WIND PRES REMARKS
 
OCALA CLOUDY 76 74 93 CALM 30.04F  
THE VILLAGES N/A 79 75 89 CALM 29.94F  
LEESBURG CLEAR 82 76 81 CALM 30.04F  
SANFORD CLOUDY 83 75 77 S5 30.05S  
ORLANDO EXEC CLOUDY 81 76 84 SE3 30.05F  
ORLANDO INTL TSTM 81 76 84 VRB5 30.06R  
KISSIMMEE CLOUDY 83 75 77 NW6 30.07S THUNDER  
WINTER HAVEN CLOUDY 83 72 69 SE7 30.07S THUNDER  
LAKELAND CLOUDY 82 73 74 N3 30.06S  
BARTOW TSTM 79 77 94 E7G23 30.08R  
SEBRING FAIR 84 76 77 S7 30.06S  
OKEECHOBEE CLOUDY 79 73 83 SE5 30.07S  
 

 
FLZ041-047-054-059-064-141-147-270500-  
EAST CENTRAL FLORIDA  
 
CITY SKY/WX TMP DP RH WIND PRES REMARKS
 
DAYTONA BEACH CLOUDY 81 78 91 SW5 30.04F  
DELAND CLOUDY 81 77 89 S6 30.04F  
JFK SPACE CTR PTCLDY 82 80 94 S6 30.03F  
CAPE CANAVERAL PTCLDY 81 80 97 S7 30.03F  
PATRICK AFB MOCLDY 82 79 91 S9 30.04F  
MELBOURNE PTCLDY 84 76 76 SE8 30.05S  
VERO BEACH PTCLDY 83 76 79 SE9 30.06S  
FT PIERCE CLEAR 81 77 88 SE3 30.06S  
STUART CLEAR 82 81 94 S3 30.07S HX 95  
 
STATION/POSITION SKY/WX TEMP WIND PRES WAVE SWELL
 
AIR SEA DIR/SP/G HT/PER HT/PER  
(F) (DEG/KT/KT) (MB) (FT/S) (FT/S)  
28.5N 80.2W 84 82 150/ 12/ 14 1018.6F 2/ 3 2/ 8  
28.9N 78.5W 85 85 140/ 6/ 8 1018.0F 2/10 2/10  
TRIDENT PIER 82 83 150/ 7/ 9 1019.1F  
28.4N 80.5W 82 N/A 1/ 3  
27.5N 80.2W 81 N/A 1/ 8  
 

 
FLZ050-056-061-142-242-148-248-149-249-151-251-155-255-  
160-260-270500-  
WEST CENTRAL FLORIDA  
 
CITY SKY/WX TMP DP RH WIND PRES REMARKS
 
CRYSTAL RIVER FAIR 75 73 94 CALM 30.03F  
INVERNESS FAIR 75 75 100 CALM 30.03F FOG  
BROOKSVILLE CLEAR 76 74 93 CALM 30.04F  
CLEARWATER AIR FAIR 81 75 83 CALM 30.04F  
ST PETE CLEARW PTCLDY 83 76 79 CALM 30.04F  
TAMPA INTL MOCLDY 84 75 74 N3 30.05S  
TAMPA EXEC CLOUDY 81 77 89 CALM 30.06S  
PLANT CITY MOCLDY 84 77 79 CALM 30.07F  
MACDILL AFB CLEAR 82 79 90 CALM 30.05S  
PETER O KNIGHT MOCLDY 86 79 79 CALM 30.05S HX 99  
ST PETERSBURG PTCLDY 86 75 69 CALM 30.03S HX 95  
SARASOTA PTCLDY 83 75 77 E3 30.04S  
VENICE CLOUDY 86 75 70 N5 30.06S HX 95  
 
STATION/POSITION SKY/WX TEMP WIND PRES WAVE SWELL
 
AIR SEA DIR/SP/G HT/PER HT/PER  
(F) (DEG/KT/KT) (MB) (FT/S) (FT/S)  
27.3N 84.2W 88 N/A 1/ 4  
CLEARWATER BEACH 85 90 330/ 7/ 8 1017.3F  
MIDDLE TAMPA BAY 85 350/ 6/ 8 1017.7F  
VENICE 87 88 350/ 9/ 10 1017.7R  
 

 
FLZ066-069-070-075>078-162-262-165-265-270500-  
SOUTHWEST FLORIDA AND KEYS  
 
CITY SKY/WX TMP DP RH WIND PRES REMARKS
 
PUNTA GORDA TSTM 78 75 90 S10 30.07R FOG  
FT MYERS CLOUDY 82 80 94 N5 30.05S THUNDER  
SOUTHWEST INTL MOCLDY 83 76 79 SE3 30.05S  
NAPLES CLEAR 81 76 84 CALM 30.04F  
MARCO ISLAND CLOUDY 82 77 83 S8 30.05S  
IMMOKALEE MOCLDY 81 77 89 CALM 30.06S  
MARATHON PTCLDY 85 77 77 E8 30.03F HX 95  
KEY WEST NAS CLEAR 83 78 85 E10 30.03F  
KEY WEST INTL CLEAR 85 76 74 E9 30.04F  
 
STATION/POSITION SKY/WX TEMP WIND PRES WAVE SWELL
 
AIR SEA DIR/SP/G HT/PER HT/PER  
(F) (DEG/KT/KT) (MB) (FT/S) (FT/S)  
NAPLES 89 90/ 2/ 3 1017.4F  
DRY TORTUGAS 86 120/ 8/ 9 1017.5F  
SAND KEY 85 1017.7F  
MOLASSES REEF 85 86 70/ 8/ 10 1017.4F  
 

 
FLZ067-068-071>074-168-172>174-270500-  
SOUTHEAST FLORIDA  
 
CITY SKY/WX TMP DP RH WIND PRES REMARKS
 
W PALM BEACH PTCLDY 84 76 76 SE10 30.05F  
FT LAUDER-EXEC CLEAR 83 74 74 E8 30.05S  
FT LAUDERDALE PTCLDY 85 76 74 SE10 30.05S  
POMPANO BEACH CLEAR 85 75 72 SE9 30.06R  
PEMBROKE PINES CLEAR 84 75 74 E7 30.07S  
OPA LOCKA CLEAR 83 78 85 E6 30.06S  
MIAMI PTCLDY 84 74 71 E8 30.06R  
WEST KENDALL CLEAR 82 74 76 E7 30.05S  
HOMESTEAD PTCLDY 83 78 83 E6 30.04S  
 
STATION/POSITION SKY/WX TEMP WIND PRES WAVE SWELL
 
AIR SEA DIR/SP/G HT/PER HT/PER  
(F) (DEG/KT/KT) (MB) (FT/S) (FT/S)  
PORT EVERGLADES 85 110/ 4/ 7 1017.9R  
VIRGINIA KEY 90/ 10/ 13 N/A  
LAKE WORTH 140/ 12/ 14 N/A  
FOWEY ROCKS 85 86 80/ 12/ 13 1018.1F  
SETTLEMENT POINT 83 120/ 5/ 5 1018.2F  
 

 
 
 
 
CLICK HERE TO GO TO PREVIOUS BULLETINS.

The Nexlab FL Page Main Text Page